Location: Namasale
(1.5000°N, 32.6167°E)
Time: 23:56:32
(UTC+00:00)

Transit 2A - Pass Details

Date: 20 April 2021
Orbit: 602 x 957 km, 66.7° (Epoch: 11 May)

Event Time Altitude Azimuth Distance (km) Brightness Sun altitude
Rises 02:30:16 0° 177° (S) 3,449 9.3 -18.8°
Reaches altitude 10° 02:33:20 10° 163° (SSE) 2,448 8.7 -18.1°
Maximum altitude 02:37:43 23° 112° (ESE) 1,607 8.3 -17.0°
Drops below altitude 10° 02:41:47 10° 60° (ENE) 2,251 9.6 -16.0°
Sets 02:44:27 0° 45° (NE) 3,107 10.2 -15.4°
